Location: ??
(35.5138°N, 139.6953°E)
Time: 08:57:44
(UTC+00:00)

Cosmos 1741 Rocket - Pass Details

Date: 07 June 2020
Orbit: 762 x 782 km, 74.0° (Epoch: 05 July)

Event Time Altitude Azimuth Distance (km) Brightness Sun altitude
Rises 10:16:05 0° 349° (N) 3,230 8.0 -4.6°
Reaches altitude 10° 10:18:33 10° 356° (N) 2,302 7.0 -5.0°
Maximum altitude 10:23:33 45° 69° (ENE) 1,034 4.5 -5.8°
Drops below altitude 10° 10:28:32 10° 141° (SE) 2,297 5.9 -6.7°
Enters shadow 10:29:22 - 144° (SE) 2,604 6.2 -6.8°
